Time,TemperatureF,DewpointF,PressureIn,WindDirection,WindDirectionDegrees,WindSpeedMPH,WindSpeedGustMPH,Humidity,HourlyPrecipIn,Conditions,Clouds,dailyrainin,SoftwareType,DateUTC
2013-02-16 00:03:00,56.2,43.4,30.26,North,358,7.0,15.0,62,0.00,,---,0.00,VWS V14.01,2013-02-16 06:03:00,
2013-02-16 00:08:00,56.2,43.4,30.26,North,11,11.0,15.0,62,0.00,,---,0.00,VWS V14.01,2013-02-16 06:08:00,
2013-02-16 00:13:00,56.0,43.2,30.26,North,350,7.0,18.0,62,0.00,,---,0.00,VWS V14.01,2013-02-16 06:13:00,
2013-02-16 00:18:00,56.0,43.2,30.26,North,359,7.0,15.0,62,0.00,,---,0.00,VWS V14.01,2013-02-16 06:18:00,
2013-02-16 00:23:00,56.0,42.8,30.26,NNW,334,2.0,15.0,61,0.00,,---,0.00,VWS V14.01,2013-02-16 06:23:00,
2013-02-16 00:28:00,56.0,43.2,30.26,NNE,28,1.0,15.0,62,0.00,,---,0.00,VWS V14.01,2013-02-16 06:28:00,
2013-02-16 00:33:00,56.0,43.2,30.27,North,358,2.0,4.0,62,0.00,,---,0.00,VWS V14.01,2013-02-16 06:33:00,
2013-02-16 00:38:00,56.0,43.2,30.27,North,5,1.0,7.0,62,0.00,,---,0.00,VWS V14.01,2013-02-16 06:38:00,
2013-02-16 00:43:00,55.9,43.1,30.27,NNE,16,2.0,7.0,62,0.00,,---,0.00,VWS V14.01,2013-02-16 06:43:00,
2013-02-16 00:48:00,55.9,43.1,30.28,North,4,3.0,3.0,62,0.00,,---,0.00,VWS V14.01,2013-02-16 06:48:00,
2013-02-16 00:53:00,55.7,42.9,30.28,North,354,1.0,7.0,62,0.00,,---,0.00,VWS V14.01,2013-02-16 06:53:00,
2013-02-16 00:58:00,55.7,42.9,30.28,North,358,1.0,9.0,62,0.00,,---,0.00,VWS V14.01,2013-02-16 06:58:00,
2013-02-16 01:03:00,55.6,42.8,30.28,NNW,347,1.0,12.0,62,0.00,,---,0.00,VWS V14.01,2013-02-16 07:03:00,
2013-02-16 01:08:00,55.4,42.2,30.28,North,5,6.0,22.0,61,0.00,,---,0.00,VWS V14.01,2013-02-16 07:08:00,
2013-02-16 01:13:00,55.3,42.5,30.28,NNW,333,1.0,22.0,62,0.00,,---,0.00,VWS V14.01,2013-02-16 07:13:00,
2013-02-16 01:18:00,55.1,42.3,30.28,North,2,9.0,17.0,62,0.00,,---,0.00,VWS V14.01,2013-02-16 07:18:00,
2013-02-16 01:23:00,55.0,42.2,30.28,NNW,347,9.0,17.0,62,0.00,,---,0.00,VWS V14.01,2013-02-16 07:23:00,
2013-02-16 01:28:00,55.0,42.2,30.28,NNE,21,12.0,20.0,62,0.00,,---,0.00,VWS V14.01,2013-02-16 07:28:00,
2013-02-16 01:33:00,54.8,41.6,30.29,NNE,25,10.0,20.0,61,0.00,,---,0.00,VWS V14.01,2013-02-16 07:33:00,
2013-02-16 01:38:00,54.7,41.1,30.29,North,2,11.0,20.0,60,0.00,,---,0.00,VWS V14.01,2013-02-16 07:38:00,
2013-02-16 01:43:00,54.5,40.9,30.29,NNW,345,5.0,20.0,60,0.00,,---,0.00,VWS V14.01,2013-02-16 07:43:00,
2013-02-16 01:48:00,54.5,40.9,30.30,North,358,12.0,19.0,60,0.00,,---,0.00,VWS V14.01,2013-02-16 07:48:00,
2013-02-16 01:53:00,54.5,40.5,30.30,NNE,22,15.0,21.0,59,0.00,,---,0.00,VWS V14.01,2013-02-16 07:53:00,
2013-02-16 01:58:00,54.4,40.4,30.30,NNW,348,9.0,21.0,59,0.00,,---,0.00,VWS V14.01,2013-02-16 07:58:00,
2013-02-16 02:03:00,54.4,40.4,30.29,North,357,9.0,18.0,59,0.00,,---,0.00,VWS V14.01,2013-02-16 08:03:00,
2013-02-16 02:08:00,54.2,40.2,30.29,North,358,12.0,18.0,59,0.00,,---,0.00,VWS V14.01,2013-02-16 08:08:00,
2013-02-16 02:13:00,54.2,40.2,30.29,North,355,6.0,18.0,59,0.00,,---,0.00,VWS V14.01,2013-02-16 08:13:00,
2013-02-16 02:18:00,54.1,40.5,30.30,North,357,12.0,15.0,60,0.00,,---,0.00,VWS V14.01,2013-02-16 08:18:00,
2013-02-16 02:23:00,53.8,40.3,30.30,NNE,21,8.0,15.0,60,0.00,,---,0.00,VWS V14.01,2013-02-16 08:23:00,
2013-02-16 02:28:00,53.6,39.6,30.30,NNW,328,9.0,15.0,59,0.00,,---,0.00,VWS V14.01,2013-02-16 08:28:00,
2013-02-16 02:33:00,53.5,39.5,30.30,North,5,3.0,13.0,59,0.00,,---,0.00,VWS V14.01,2013-02-16 08:33:00,
2013-02-16 02:38:00,53.3,38.9,30.30,North,352,9.0,13.0,58,0.00,,---,0.00,VWS V14.01,2013-02-16 08:38:00,
2013-02-16 02:43:00,53.3,38.9,30.30,North,357,9.0,17.0,58,0.00,,---,0.00,VWS V14.01,2013-02-16 08:43:00,
2013-02-16 02:48:00,53.2,39.3,30.30,North,4,10.0,15.0,59,0.00,,---,0.00,VWS V14.01,2013-02-16 08:48:00,
2013-02-16 02:53:00,53.1,39.2,30.30,North,355,13.0,15.0,59,0.00,,---,0.00,VWS V14.01,2013-02-16 08:53:00,
2013-02-16 02:58:00,52.9,39.0,30.30,NNW,344,6.0,17.0,59,0.00,,---,0.00,VWS V14.01,2013-02-16 08:58:00,
2013-02-16 03:03:00,52.8,39.3,30.30,NNW,345,8.0,11.0,60,0.00,,---,0.00,VWS V14.01,2013-02-16 09:03:00,
2013-02-16 03:08:00,52.5,38.6,30.30,North,358,6.0,11.0,59,0.00,,---,0.00,VWS V14.01,2013-02-16 09:08:00,
2013-02-16 03:13:00,52.2,38.3,30.30,NNW,335,5.0,12.0,59,0.00,,---,0.00,VWS V14.01,2013-02-16 09:13:00,
2013-02-16 03:18:00,52.0,38.1,30.30,NW,326,11.0,14.0,59,0.00,,---,0.00,VWS V14.01,2013-02-16 09:18:00,
2013-02-16 03:23:00,52.0,38.6,30.30,North,359,12.0,14.0,60,0.00,,---,0.00,VWS V14.01,2013-02-16 09:23:00,
2013-02-16 03:28:00,51.9,38.5,30.30,NNW,328,9.0,14.0,60,0.00,,---,0.00,VWS V14.01,2013-02-16 09:28:00,
2013-02-16 03:33:00,51.9,38.5,30.31,North,4,8.0,12.0,60,0.00,,---,0.00,VWS V14.01,2013-02-16 09:33:00,
2013-02-16 03:38:00,51.7,38.3,30.31,North,6,8.0,15.0,60,0.00,,---,0.00,VWS V14.01,2013-02-16 09:38:00,
2013-02-16 03:43:00,51.7,37.8,30.31,NNW,341,8.0,15.0,59,0.00,,---,0.00,VWS V14.01,2013-02-16 09:43:00,
2013-02-16 03:49:00,51.7,37.8,30.31,North,355,8.0,12.0,59,0.00,,---,0.00,VWS V14.01,2013-02-16 09:49:00,
2013-02-16 03:53:00,51.6,37.8,30.31,North,358,8.0,12.0,59,0.00,,---,0.00,VWS V14.01,2013-02-16 09:53:00,
2013-02-16 03:58:00,51.6,38.2,30.31,North,357,4.0,12.0,60,0.00,,---,0.00,VWS V14.01,2013-02-16 09:58:00,
2013-02-16 04:03:00,51.4,38.4,30.32,North,358,4.0,13.0,61,0.00,,---,0.00,VWS V14.01,2013-02-16 10:03:00,
2013-02-16 04:08:00,51.1,38.1,30.32,North,357,5.0,13.0,61,0.00,,---,0.00,VWS V14.01,2013-02-16 10:08:00,
2013-02-16 04:14:00,51.0,38.0,30.32,North,351,7.0,13.0,61,0.00,,---,0.00,VWS V14.01,2013-02-16 10:14:00,
2013-02-16 04:19:00,51.0,37.6,30.32,North,8,6.0,13.0,60,0.00,,---,0.00,VWS V14.01,2013-02-16 10:19:00,
2013-02-16 04:24:00,51.0,36.8,30.32,North,359,10.0,13.0,58,0.00,,---,0.00,VWS V14.01,2013-02-16 10:24:00,
2013-02-16 04:29:00,51.0,36.3,30.32,North,358,3.0,17.0,57,0.00,,---,0.00,VWS V14.01,2013-02-16 10:29:00,
2013-02-16 04:34:00,50.8,35.7,30.32,North,359,6.0,12.0,56,0.00,,---,0.00,VWS V14.01,2013-02-16 10:34:00,
2013-02-16 04:39:00,50.7,35.1,30.32,NNW,333,9.0,13.0,55,0.00,,---,0.00,VWS V14.01,2013-02-16 10:39:00,
2013-02-16 04:44:00,50.7,34.7,30.32,North,351,7.0,13.0,54,0.00,,---,0.00,VWS V14.01,2013-02-16 10:44:00,
2013-02-16 04:49:00,50.5,34.5,30.33,NW,320,9.0,11.0,54,0.00,,---,0.00,VWS V14.01,2013-02-16 10:49:00,
2013-02-16 04:54:00,50.4,33.9,30.33,North,350,6.0,14.0,53,0.00,,---,0.00,VWS V14.01,2013-02-16 10:54:00,
2013-02-16 04:59:00,50.1,33.2,30.33,North,357,12.0,14.0,52,0.00,,---,0.00,VWS V14.01,2013-02-16 10:59:00,
2013-02-16 05:04:00,49.9,31.5,30.33,North,359,9.0,15.0,49,0.00,,---,0.00,VWS V14.01,2013-02-16 11:04:00,
2013-02-16 05:09:00,49.8,31.4,30.33,North,357,6.0,15.0,49,0.00,,---,0.00,VWS V14.01,2013-02-16 11:09:00,
2013-02-16 05:14:00,49.8,31.9,30.33,North,358,9.0,15.0,50,0.00,,---,0.00,VWS V14.01,2013-02-16 11:14:00,
2013-02-16 05:19:00,49.6,31.2,30.34,NNW,347,9.0,10.0,49,0.00,,---,0.00,VWS V14.01,2013-02-16 11:19:00,
2013-02-16 05:24:00,49.5,31.1,30.34,North,6,6.0,12.0,49,0.00,,---,0.00,VWS V14.01,2013-02-16 11:24:00,
2013-02-16 05:29:00,49.4,31.1,30.34,North,358,6.0,12.0,49,0.00,,---,0.00,VWS V14.01,2013-02-16 11:29:00,
2013-02-16 05:34:00,49.4,31.1,30.34,NNW,342,7.0,9.0,49,0.00,,---,0.00,VWS V14.01,2013-02-16 11:34:00,
2013-02-16 05:39:00,49.1,30.8,30.34,NNW,337,7.0,11.0,49,0.00,,---,0.00,VWS V14.01,2013-02-16 11:39:00,
2013-02-16 05:44:00,48.9,30.6,30.34,North,357,6.0,12.0,49,0.00,,---,0.00,VWS V14.01,2013-02-16 11:44:00,
2013-02-16 05:49:00,48.9,30.6,30.35,North,358,7.0,8.0,49,0.00,,---,0.00,VWS V14.01,2013-02-16 11:49:00,
2013-02-16 05:54:00,48.8,31.0,30.35,North,358,4.0,8.0,50,0.00,,---,0.00,VWS V14.01,2013-02-16 11:54:00,
2013-02-16 05:59:00,48.6,30.8,30.35,North,358,2.0,8.0,50,0.00,,---,0.00,VWS V14.01,2013-02-16 11:59:00,
2013-02-16 06:04:00,48.5,30.7,30.35,North,358,7.0,8.0,50,0.00,,---,0.00,VWS V14.01,2013-02-16 12:04:00,
2013-02-16 06:09:00,48.2,30.9,30.35,North,358,4.0,8.0,51,0.00,,---,0.00,VWS V14.01,2013-02-16 12:09:00,
2013-02-16 06:14:00,48.0,30.8,30.35,North,358,2.0,8.0,51,0.00,,---,0.00,VWS V14.01,2013-02-16 12:14:00,
2013-02-16 06:19:00,48.0,30.8,30.35,North,355,5.0,8.0,51,0.00,,---,0.00,VWS V14.01,2013-02-16 12:19:00,
2013-02-16 06:24:00,48.2,30.5,30.35,NNW,341,4.0,8.0,50,0.00,,---,0.00,VWS V14.01,2013-02-16 12:24:00,
2013-02-16 06:29:00,48.0,30.3,30.35,North,359,2.0,8.0,50,0.00,,---,0.00,VWS V14.01,2013-02-16 12:29:00,
2013-02-16 06:34:00,47.7,30.0,30.36,North,357,3.0,6.0,50,0.00,,---,0.00,VWS V14.01,2013-02-16 12:34:00,
2013-02-16 06:39:00,47.4,29.7,30.36,North,357,3.0,6.0,50,0.00,,---,0.00,VWS V14.01,2013-02-16 12:39:00,
2013-02-16 06:44:00,47.3,29.6,30.36,North,358,2.0,7.0,50,0.00,,---,0.00,VWS V14.01,2013-02-16 12:44:00,
2013-02-16 06:49:00,47.1,29.4,30.36,North,358,2.0,4.0,50,0.00,,---,0.00,VWS V14.01,2013-02-16 12:49:00,
2013-02-16 06:54:00,47.0,29.3,30.36,North,358,2.0,4.0,50,0.00,,---,0.00,VWS V14.01,2013-02-16 12:54:00,
2013-02-16 06:59:00,46.8,29.6,30.36,North,358,3.0,4.0,51,0.00,,---,0.00,VWS V14.01,2013-02-16 12:59:00,
2013-02-16 07:04:00,46.5,29.8,30.36,North,358,3.0,4.0,52,0.00,,---,0.00,VWS V14.01,2013-02-16 13:04:00,
2013-02-16 07:09:00,46.5,29.4,30.36,North,358,4.0,6.0,51,0.00,,---,0.00,VWS V14.01,2013-02-16 13:09:00,
2013-02-16 07:14:00,46.4,29.3,30.37,North,358,4.0,7.0,51,0.00,,---,0.00,VWS V14.01,2013-02-16 13:14:00,
2013-02-16 07:19:00,46.5,28.9,30.37,North,355,4.0,5.0,50,0.00,,---,0.00,VWS V14.01,2013-02-16 13:19:00,
2013-02-16 07:24:00,46.7,29.1,30.37,NNW,328,3.0,9.0,50,0.00,,---,0.00,VWS V14.01,2013-02-16 13:24:00,
2013-02-16 07:29:00,46.8,29.2,30.38,North,350,4.0,9.0,50,0.00,,---,0.00,VWS V14.01,2013-02-16 13:29:00,
2013-02-16 07:34:00,47.0,29.3,30.38,NNW,337,3.0,7.0,50,0.00,,---,0.00,VWS V14.01,2013-02-16 13:34:00,
2013-02-16 07:39:00,47.1,28.9,30.38,North,352,4.0,8.0,49,0.00,,---,0.00,VWS V14.01,2013-02-16 13:39:00,
2013-02-16 07:44:00,47.3,29.1,30.39,North,358,3.0,9.0,49,0.00,,---,0.00,VWS V14.01,2013-02-16 13:44:00,
2013-02-16 07:49:00,47.4,29.2,30.39,North,359,6.0,8.0,49,0.00,,---,0.00,VWS V14.01,2013-02-16 13:49:00,
2013-02-16 07:54:00,47.6,28.9,30.39,North,354,5.0,8.0,48,0.00,,---,0.00,VWS V14.01,2013-02-16 13:54:00,
2013-02-16 07:59:00,47.7,29.0,30.40,North,358,6.0,8.0,48,0.00,,---,0.00,VWS V14.01,2013-02-16 13:59:00,
2013-02-16 08:04:00,48.0,28.8,30.40,North,350,3.0,8.0,47,0.00,,---,0.00,VWS V14.01,2013-02-16 14:04:00,
2013-02-16 08:09:00,48.5,29.2,30.40,North,357,7.0,9.0,47,0.00,,---,0.00,VWS V14.01,2013-02-16 14:09:00,
2013-02-16 08:14:00,48.8,29.0,30.41,North,5,6.0,9.0,46,0.00,,---,0.00,VWS V14.01,2013-02-16 14:14:00,
2013-02-16 08:19:00,48.9,29.0,30.41,North,354,9.0,14.0,46,0.00,,---,0.00,VWS V14.01,2013-02-16 14:19:00,
2013-02-16 08:24:00,49.1,28.7,30.41,North,1,12.0,15.0,45,0.00,,---,0.00,VWS V14.01,2013-02-16 14:24:00,
2013-02-16 08:29:00,49.2,28.8,30.41,North,8,4.0,15.0,45,0.00,,---,0.00,VWS V14.01,2013-02-16 14:29:00,
2013-02-16 08:34:00,49.4,28.4,30.41,NNE,18,9.0,14.0,44,0.00,,---,0.00,VWS V14.01,2013-02-16 14:34:00,
2013-02-16 08:39:00,49.5,28.5,30.41,North,357,3.0,14.0,44,0.00,,---,0.00,VWS V14.01,2013-02-16 14:39:00,
2013-02-16 08:44:00,49.6,28.6,30.42,North,350,11.0,14.0,44,0.00,,---,0.00,VWS V14.01,2013-02-16 14:44:00,
2013-02-16 08:49:00,49.6,29.1,30.42,NNE,16,13.0,17.0,45,0.00,,---,0.00,VWS V14.01,2013-02-16 14:49:00,
2013-02-16 08:54:00,49.8,28.2,30.42,NNE,29,9.0,17.0,43,0.00,,---,0.00,VWS V14.01,2013-02-16 14:54:00,
2013-02-16 08:59:00,50.1,29.0,30.42,NNW,344,9.0,17.0,44,0.00,,---,0.00,VWS V14.01,2013-02-16 14:59:00,
2013-02-16 09:04:00,50.2,28.6,30.42,North,4,6.0,14.0,43,0.00,,---,0.00,VWS V14.01,2013-02-16 15:04:00,
2013-02-16 09:09:00,50.5,28.9,30.42,North,11,8.0,14.0,43,0.00,,---,0.00,VWS V14.01,2013-02-16 15:09:00,
2013-02-16 09:14:00,50.8,29.1,30.42,NNE,26,4.0,14.0,43,0.00,,---,0.00,VWS V14.01,2013-02-16 15:14:00,
2013-02-16 09:19:00,51.1,28.8,30.42,NE,36,12.0,13.0,42,0.00,,---,0.00,VWS V14.01,2013-02-16 15:19:00,
2013-02-16 09:24:00,51.1,28.2,30.42,North,2,10.0,17.0,41,0.00,,---,0.00,VWS V14.01,2013-02-16 15:24:00,
2013-02-16 09:29:00,51.6,29.9,30.42,North,5,4.0,17.0,43,0.00,,---,0.00,VWS V14.01,2013-02-16 15:29:00,
2013-02-16 09:34:00,51.6,28.1,30.42,North,2,7.0,14.0,40,0.00,,---,0.00,VWS V14.01,2013-02-16 15:34:00,
2013-02-16 09:39:00,51.7,28.8,30.42,NNW,347,9.0,18.0,41,0.00,,---,0.00,VWS V14.01,2013-02-16 15:39:00,
2013-02-16 09:44:00,51.9,28.4,30.42,NNE,19,7.0,18.0,40,0.00,,---,0.00,VWS V14.01,2013-02-16 15:44:00,
2013-02-16 09:49:00,52.3,28.1,30.42,North,6,11.0,11.0,39,0.00,,---,0.00,VWS V14.01,2013-02-16 15:49:00,
2013-02-16 09:54:00,52.6,29.0,30.42,NNE,19,7.0,15.0,40,0.00,,---,0.00,VWS V14.01,2013-02-16 15:54:00,
2013-02-16 09:59:00,52.9,28.6,30.43,NNE,16,6.0,15.0,39,0.00,,---,0.00,VWS V14.01,2013-02-16 15:59:00,
2013-02-16 10:04:00,53.2,28.3,30.43,North,9,9.0,15.0,38,0.00,,---,0.00,VWS V14.01,2013-02-16 16:04:00,
2013-02-16 10:10:00,53.1,28.2,30.43,North,358,11.0,15.0,38,0.00,,---,0.00,VWS V14.01,2013-02-16 16:10:00,
2013-02-16 10:15:00,53.3,28.4,30.42,NNE,15,4.0,15.0,38,0.00,,---,0.00,VWS V14.01,2013-02-16 16:15:00,
2013-02-16 10:20:00,53.8,28.2,30.42,NNE,15,4.0,12.0,37,0.00,,---,0.00,VWS V14.01,2013-02-16 16:20:00,
2013-02-16 10:25:00,54.4,28.0,30.42,NNE,21,4.0,12.0,36,0.00,,---,0.00,VWS V14.01,2013-02-16 16:25:00,
2013-02-16 10:30:00,54.5,28.8,30.43,North,1,12.0,13.0,37,0.00,,---,0.00,VWS V14.01,2013-02-16 16:30:00,
2013-02-16 10:35:00,54.8,29.0,30.43,North,358,11.0,11.0,37,0.00,,---,0.00,VWS V14.01,2013-02-16 16:35:00,
2013-02-16 10:40:00,54.7,27.6,30.43,NNE,12,4.0,12.0,35,0.00,,---,0.00,VWS V14.01,2013-02-16 16:40:00,
2013-02-16 10:45:00,55.3,27.4,30.43,NNE,22,9.0,12.0,34,0.00,,---,0.00,VWS V14.01,2013-02-16 16:45:00,
2013-02-16 10:50:00,55.6,27.7,30.43,NNE,16,8.0,12.0,34,0.00,,---,0.00,VWS V14.01,2013-02-16 16:50:00,
2013-02-16 10:55:00,55.9,26.5,30.43,NNW,342,5.0,12.0,32,0.00,,---,0.00,VWS V14.01,2013-02-16 16:55:00,
2013-02-16 11:00:00,56.0,25.8,30.43,NNE,12,4.0,12.0,31,0.00,,---,0.00,VWS V14.01,2013-02-16 17:00:00,
2013-02-16 11:05:00,56.3,26.8,30.43,North,6,8.0,9.0,32,0.00,,---,0.00,VWS V14.01,2013-02-16 17:05:00,
2013-02-16 11:10:00,56.5,27.0,30.43,North,2,2.0,9.0,32,0.00,,---,0.00,VWS V14.01,2013-02-16 17:10:00,
2013-02-16 11:15:00,56.5,27.8,30.42,North,355,3.0,9.0,33,0.00,,---,0.00,VWS V14.01,2013-02-16 17:15:00,
2013-02-16 11:20:00,57.0,25.1,30.42,ENE,57,4.0,9.0,29,0.00,,---,0.00,VWS V14.01,2013-02-16 17:20:00,
2013-02-16 11:25:00,57.2,26.1,30.42,NNE,14,6.0,12.0,30,0.00,,---,0.00,VWS V14.01,2013-02-16 17:25:00,
2013-02-16 11:30:00,57.5,25.5,30.42,North,2,4.0,12.0,29,0.00,,---,0.00,VWS V14.01,2013-02-16 17:30:00,
2013-02-16 11:35:00,58.0,25.1,30.42,NNE,14,4.0,10.0,28,0.00,,---,0.00,VWS V14.01,2013-02-16 17:35:00,
2013-02-16 11:40:00,58.1,26.0,30.42,North,4,1.0,10.0,29,0.00,,---,0.00,VWS V14.01,2013-02-16 17:40:00,
2013-02-16 11:45:00,58.4,27.1,30.41,North,4,1.0,10.0,30,0.00,,---,0.00,VWS V14.01,2013-02-16 17:45:00,
2013-02-16 11:50:00,58.3,25.4,30.41,North,358,1.0,11.0,28,0.00,,---,0.00,VWS V14.01,2013-02-16 17:50:00,
2013-02-16 11:55:00,58.9,25.9,30.41,East,88,5.0,11.0,28,0.00,,---,0.00,VWS V14.01,2013-02-16 17:55:00,
2013-02-16 12:00:00,59.5,26.4,30.40,North,355,3.0,6.0,28,0.00,,---,0.00,VWS V14.01,2013-02-16 18:00:00,
2013-02-16 12:05:00,59.2,26.1,30.40,NNE,14,4.0,11.0,28,0.00,,---,0.00,VWS V14.01,2013-02-16 18:05:00,
2013-02-16 12:10:00,59.5,25.5,30.40,North,358,3.0,11.0,27,0.00,,---,0.00,VWS V14.01,2013-02-16 18:10:00,
2013-02-16 12:15:00,59.8,25.8,30.39,North,358,3.0,3.0,27,0.00,,---,0.00,VWS V14.01,2013-02-16 18:15:00,
2013-02-16 12:20:00,60.5,26.4,30.39,NE,47,3.0,8.0,27,0.00,,---,0.00,VWS V14.01,2013-02-16 18:20:00,
2013-02-16 12:25:00,61.2,27.9,30.39,East,90,7.0,8.0,28,0.00,,---,0.00,VWS V14.01,2013-02-16 18:25:00,
2013-02-16 12:30:00,61.2,27.0,30.38,North,358,5.0,5.0,27,0.00,,---,0.00,VWS V14.01,2013-02-16 18:30:00,
2013-02-16 12:35:00,61.2,27.0,30.38,NNE,23,7.0,7.0,27,0.00,,---,0.00,VWS V14.01,2013-02-16 18:35:00,
2013-02-16 12:40:00,61.5,26.3,30.38,NE,38,2.0,8.0,26,0.00,,---,0.00,VWS V14.01,2013-02-16 18:40:00,
2013-02-16 12:45:00,61.5,26.3,30.37,North,358,3.0,3.0,26,0.00,,---,0.00,VWS V14.01,2013-02-16 18:45:00,
2013-02-16 12:50:00,61.3,26.1,30.37,NNE,14,3.0,9.0,26,0.00,,---,0.00,VWS V14.01,2013-02-16 18:50:00,
2013-02-16 12:55:00,61.8,26.6,30.37,NNW,348,1.0,9.0,26,0.00,,---,0.00,VWS V14.01,2013-02-16 18:55:00,
2013-02-16 13:00:00,62.6,27.3,30.36,North,5,1.0,2.0,26,0.00,,---,0.00,VWS V14.01,2013-02-16 19:00:00,
2013-02-16 13:05:00,62.7,26.4,30.36,NNE,28,3.0,3.0,25,0.00,,---,0.00,VWS V14.01,2013-02-16 19:05:00,
2013-02-16 13:10:00,62.4,27.1,30.36,North,350,1.0,7.0,26,0.00,,---,0.00,VWS V14.01,2013-02-16 19:10:00,
2013-02-16 13:15:00,62.7,27.4,30.34,NNE,15,2.0,2.0,26,0.00,,---,0.00,VWS V14.01,2013-02-16 19:15:00,
2013-02-16 13:20:00,63.1,27.7,30.34,NNE,29,8.0,9.0,26,0.00,,---,0.00,VWS V14.01,2013-02-16 19:20:00,
2013-02-16 13:25:00,63.1,26.7,30.34,North,357,2.0,9.0,25,0.00,,---,0.00,VWS V14.01,2013-02-16 19:25:00,
2013-02-16 13:30:00,63.5,27.1,30.33,NE,42,2.0,2.0,25,0.00,,---,0.00,VWS V14.01,2013-02-16 19:30:00,
2013-02-16 13:35:00,64.3,27.8,30.33,ENE,73,1.0,6.0,25,0.00,,---,0.00,VWS V14.01,2013-02-16 19:35:00,
2013-02-16 13:40:00,64.2,27.7,30.33,NNE,26,2.0,6.0,25,0.00,,---,0.00,VWS V14.01,2013-02-16 19:40:00,
2013-02-16 13:45:00,64.2,27.7,30.32,NW,326,1.0,1.0,25,0.00,,---,0.00,VWS V14.01,2013-02-16 19:45:00,
2013-02-16 13:50:00,64.2,27.7,30.32,North,358,4.0,8.0,25,0.00,,---,0.00,VWS V14.01,2013-02-16 19:50:00,
2013-02-16 13:55:00,64.3,28.7,30.32,North,8,2.0,8.0,26,0.00,,---,0.00,VWS V14.01,2013-02-16 19:55:00,
2013-02-16 14:00:00,64.8,28.2,30.31,North,350,5.0,5.0,25,0.00,,---,0.00,VWS V14.01,2013-02-16 20:00:00,
2013-02-16 14:05:00,64.7,28.1,30.31,NNW,345,2.0,7.0,25,0.00,,---,0.00,VWS V14.01,2013-02-16 20:05:00,
2013-02-16 14:10:00,65.0,28.4,30.31,NW,313,1.0,7.0,25,0.00,,---,0.00,VWS V14.01,2013-02-16 20:10:00,
2013-02-16 14:15:00,65.5,27.8,30.30,ENE,70,1.0,2.0,24,0.00,,---,0.00,VWS V14.01,2013-02-16 20:15:00,
2013-02-16 14:20:00,65.0,28.4,30.30,NW,324,6.0,8.0,25,0.00,,---,0.00,VWS V14.01,2013-02-16 20:20:00,
2013-02-16 14:25:00,63.9,27.4,30.30,NW,313,4.0,8.0,25,0.00,,---,0.00,VWS V14.01,2013-02-16 20:25:00,
2013-02-16 14:30:00,64.0,28.5,30.29,NNW,342,1.0,2.0,26,0.00,,---,0.00,VWS V14.01,2013-02-16 20:30:00,
2013-02-16 14:35:00,64.2,27.7,30.29,NNW,335,6.0,7.0,25,0.00,,---,0.00,VWS V14.01,2013-02-16 20:35:00,
2013-02-16 14:40:00,64.3,27.8,30.29,North,355,7.0,8.0,25,0.00,,---,0.00,VWS V14.01,2013-02-16 20:40:00,
2013-02-16 14:45:00,64.5,28.9,30.28,North,5,4.0,8.0,26,0.00,,---,0.00,VWS V14.01,2013-02-16 20:45:00,
2013-02-16 14:50:00,64.7,28.1,30.28,WNW,299,4.0,9.0,25,0.00,,---,0.00,VWS V14.01,2013-02-16 20:50:00,
2013-02-16 14:55:00,65.0,28.4,30.28,North,354,6.0,9.0,25,0.00,,---,0.00,VWS V14.01,2013-02-16 20:55:00,
2013-02-16 15:00:00,66.1,28.3,30.28,ENE,64,1.0,1.0,24,0.00,,---,0.00,VWS V14.01,2013-02-16 21:00:00,
2013-02-16 15:05:00,66.9,29.0,30.28,North,358,6.0,8.0,24,0.00,,---,0.00,VWS V14.01,2013-02-16 21:05:00,
2013-02-16 15:10:00,66.4,28.5,30.28,NNE,16,1.0,8.0,24,0.00,,---,0.00,VWS V14.01,2013-02-16 21:10:00,
2013-02-16 15:15:00,66.1,28.3,30.27,NNE,15,1.0,5.0,24,0.00,,---,0.00,VWS V14.01,2013-02-16 21:15:00,
2013-02-16 15:20:00,66.3,28.5,30.27,North,5,2.0,6.0,24,0.00,,---,0.00,VWS V14.01,2013-02-16 21:20:00,
2013-02-16 15:25:00,66.8,27.8,30.27,NW,317,2.0,8.0,23,0.00,,---,0.00,VWS V14.01,2013-02-16 21:25:00,
2013-02-16 15:30:00,66.8,27.8,30.27,North,9,1.0,1.0,23,0.00,,---,0.00,VWS V14.01,2013-02-16 21:30:00,
2013-02-16 15:35:00,66.3,27.4,30.27,West,276,2.0,9.0,23,0.00,,---,0.00,VWS V14.01,2013-02-16 21:35:00,
2013-02-16 15:40:00,66.1,28.3,30.27,NW,314,8.0,9.0,24,0.00,,---,0.00,VWS V14.01,2013-02-16 21:40:00,
2013-02-16 15:45:00,66.1,28.3,30.26,WNW,297,2.0,3.0,24,0.00,,---,0.00,VWS V14.01,2013-02-16 21:45:00,
2013-02-16 15:50:00,66.6,28.7,30.26,NNW,331,7.0,8.0,24,0.00,,---,0.00,VWS V14.01,2013-02-16 21:50:00,
2013-02-16 15:55:00,66.4,27.5,30.26,NW,321,3.0,8.0,23,0.00,,---,0.00,VWS V14.01,2013-02-16 21:55:00,
2013-02-16 16:00:00,66.1,27.2,30.25,NW,317,2.0,5.0,23,0.00,,---,0.00,VWS V14.01,2013-02-16 22:00:00,
2013-02-16 16:05:00,66.3,27.4,30.25,West,259,3.0,5.0,23,0.00,,---,0.00,VWS V14.01,2013-02-16 22:05:00,
2013-02-16 16:10:00,66.9,27.9,30.25,NW,309,2.0,5.0,23,0.00,,---,0.00,VWS V14.01,2013-02-16 22:10:00,
2013-02-16 16:15:00,67.3,28.3,30.25,NNW,342,1.0,1.0,23,0.00,,---,0.00,VWS V14.01,2013-02-16 22:15:00,
2013-02-16 16:21:00,67.3,27.2,30.25,West,262,1.0,6.0,22,0.00,,---,0.00,VWS V14.01,2013-02-16 22:21:00,
2013-02-16 16:26:00,67.4,27.3,30.25,West,265,1.0,6.0,22,0.00,,---,0.00,VWS V14.01,2013-02-16 22:26:00,
2013-02-16 16:31:00,67.8,29.7,30.25,South,169,4.0,8.0,24,0.00,,---,0.00,VWS V14.01,2013-02-16 22:31:00,
2013-02-16 16:36:00,66.4,34.9,30.25,SE,129,5.0,9.0,31,0.00,,---,0.00,VWS V14.01,2013-02-16 22:36:00,
2013-02-16 16:41:00,64.7,35.0,30.25,ESE,117,6.0,9.0,33,0.00,,---,0.00,VWS V14.01,2013-02-16 22:41:00,
2013-02-16 16:46:00,63.4,34.6,30.25,SE,135,8.0,12.0,34,0.00,,---,0.00,VWS V14.01,2013-02-16 22:46:00,
2013-02-16 16:51:00,62.6,33.9,30.25,ESE,122,6.0,12.0,34,0.00,,---,0.00,VWS V14.01,2013-02-16 22:51:00,
2013-02-16 16:56:00,62.6,33.9,30.25,SE,132,5.0,12.0,34,0.00,,---,0.00,VWS V14.01,2013-02-16 22:56:00,
2013-02-16 17:01:00,62.7,35.4,30.25,ESE,119,9.0,10.0,36,0.00,,---,0.00,VWS V14.01,2013-02-16 23:01:00,
2013-02-16 17:06:00,62.4,35.1,30.25,ESE,122,9.0,12.0,36,0.00,,---,0.00,VWS V14.01,2013-02-16 23:06:00,
2013-02-16 17:11:00,61.8,35.3,30.25,East,98,6.0,12.0,37,0.00,,---,0.00,VWS V14.01,2013-02-16 23:11:00,
2013-02-16 17:16:00,61.6,35.1,30.24,East,93,7.0,8.0,37,0.00,,---,0.00,VWS V14.01,2013-02-16 23:16:00,
2013-02-16 17:21:00,61.5,35.0,30.24,SSE,152,9.0,13.0,37,0.00,,---,0.00,VWS V14.01,2013-02-16 23:21:00,
2013-02-16 17:26:00,61.5,35.0,30.24,SSE,148,6.0,13.0,37,0.00,,---,0.00,VWS V14.01,2013-02-16 23:26:00,
2013-02-16 17:31:00,61.2,36.1,30.24,SE,132,7.0,9.0,39,0.00,,---,0.00,VWS V14.01,2013-02-16 23:31:00,
2013-02-16 17:36:00,60.7,36.3,30.24,SSE,162,7.0,14.0,40,0.00,,---,0.00,VWS V14.01,2013-02-16 23:36:00,
2013-02-16 17:41:00,60.2,35.8,30.24,SE,135,13.0,14.0,40,0.00,,---,0.00,VWS V14.01,2013-02-16 23:41:00,
2013-02-16 17:46:00,59.6,35.9,30.24,SSE,153,8.0,12.0,41,0.00,,---,0.00,VWS V14.01,2013-02-16 23:46:00,
2013-02-16 17:51:00,59.5,36.4,30.24,ESE,122,9.0,12.0,42,0.00,,---,0.00,VWS V14.01,2013-02-16 23:51:00,
2013-02-16 17:56:00,59.2,36.7,30.24,SE,142,6.0,13.0,43,0.00,,---,0.00,VWS V14.01,2013-02-16 23:56:00,
2013-02-16 18:01:00,59.0,36.0,30.24,SSE,158,4.0,8.0,42,0.00,,---,0.00,VWS V14.01,2013-02-17 00:01:00,
2013-02-16 18:06:00,58.7,35.7,30.24,SE,145,4.0,11.0,42,0.00,,---,0.00,VWS V14.01,2013-02-17 00:06:00,
2013-02-16 18:11:00,58.6,36.2,30.24,SE,141,2.0,11.0,43,0.00,,---,0.00,VWS V14.01,2013-02-17 00:11:00,
2013-02-16 18:16:00,58.1,36.9,30.24,SSE,158,4.0,6.0,45,0.00,,---,0.00,VWS V14.01,2013-02-17 00:16:00,
2013-02-16 18:21:00,57.6,37.0,30.24,SSE,155,3.0,9.0,46,0.00,,---,0.00,VWS V14.01,2013-02-17 00:21:00,
2013-02-16 18:26:00,57.3,37.3,30.24,SE,142,3.0,11.0,47,0.00,,---,0.00,VWS V14.01,2013-02-17 00:26:00,
2013-02-16 18:31:00,57.0,37.0,30.24,SSE,150,4.0,7.0,47,0.00,,---,0.00,VWS V14.01,2013-02-17 00:31:00,
2013-02-16 18:36:00,56.7,37.2,30.24,SE,141,7.0,9.0,48,0.00,,---,0.00,VWS V14.01,2013-02-17 00:36:00,
2013-02-16 18:41:00,56.6,37.7,30.24,SE,134,2.0,9.0,49,0.00,,---,0.00,VWS V14.01,2013-02-17 00:41:00,
2013-02-16 18:46:00,56.3,37.9,30.24,SE,129,9.0,9.0,50,0.00,,---,0.00,VWS V14.01,2013-02-17 00:46:00,
2013-02-16 18:51:00,56.0,37.6,30.24,SE,128,3.0,9.0,50,0.00,,---,0.00,VWS V14.01,2013-02-17 00:51:00,
2013-02-16 18:56:00,55.7,37.4,30.24,SE,129,3.0,9.0,50,0.00,,---,0.00,VWS V14.01,2013-02-17 00:56:00,
2013-02-16 19:01:00,55.6,37.8,30.24,SE,129,1.0,3.0,51,0.00,,---,0.00,VWS V14.01,2013-02-17 01:01:00,
2013-02-16 19:06:00,55.4,38.1,30.24,SE,129,6.0,7.0,52,0.00,,---,0.00,VWS V14.01,2013-02-17 01:06:00,
2013-02-16 19:11:00,55.3,38.5,30.24,SE,132,7.0,7.0,53,0.00,,---,0.00,VWS V14.01,2013-02-17 01:11:00,
2013-02-16 19:16:00,55.0,38.7,30.25,SE,132,5.0,6.0,54,0.00,,---,0.00,VWS V14.01,2013-02-17 01:16:00,
2013-02-16 19:21:00,54.8,38.5,30.25,SE,136,3.0,8.0,54,0.00,,---,0.00,VWS V14.01,2013-02-17 01:21:00,
2013-02-16 19:26:00,54.7,38.4,30.25,SE,134,3.0,8.0,54,0.00,,---,0.00,VWS V14.01,2013-02-17 01:26:00,
2013-02-16 19:31:00,54.4,38.6,30.24,SE,129,3.0,7.0,55,0.00,,---,0.00,VWS V14.01,2013-02-17 01:31:00,
2013-02-16 19:36:00,54.2,38.4,30.24,SE,131,3.0,8.0,55,0.00,,---,0.00,VWS V14.01,2013-02-17 01:36:00,
2013-02-16 19:41:00,53.9,38.6,30.24,SE,131,3.0,8.0,56,0.00,,---,0.00,VWS V14.01,2013-02-17 01:41:00,
2013-02-16 19:46:00,53.9,38.6,30.24,SE,141,4.0,4.0,56,0.00,,---,0.00,VWS V14.01,2013-02-17 01:46:00,
2013-02-16 19:51:00,53.9,38.6,30.24,SE,135,4.0,7.0,56,0.00,,---,0.00,VWS V14.01,2013-02-17 01:51:00,
2013-02-16 19:56:00,53.8,38.9,30.24,SE,143,3.0,7.0,57,0.00,,---,0.00,VWS V14.01,2013-02-17 01:56:00,
2013-02-16 20:01:00,53.8,38.9,30.24,SE,136,7.0,9.0,57,0.00,,---,0.00,VWS V14.01,2013-02-17 02:01:00,
2013-02-16 20:06:00,53.6,38.8,30.24,SSE,148,3.0,9.0,57,0.00,,---,0.00,VWS V14.01,2013-02-17 02:06:00,
2013-02-16 20:11:00,53.5,39.1,30.24,SE,138,2.0,9.0,58,0.00,,---,0.00,VWS V14.01,2013-02-17 02:11:00,
2013-02-16 20:16:00,53.3,38.9,30.25,SE,139,3.0,6.0,58,0.00,,---,0.00,VWS V14.01,2013-02-17 02:16:00,
2013-02-16 20:21:00,53.3,38.9,30.25,SE,138,2.0,7.0,58,0.00,,---,0.00,VWS V14.01,2013-02-17 02:21:00,
2013-02-16 20:26:00,53.3,39.3,30.25,SSE,158,2.0,8.0,59,0.00,,---,0.00,VWS V14.01,2013-02-17 02:26:00,
2013-02-16 20:31:00,53.5,39.5,30.25,SSE,155,4.0,7.0,59,0.00,,---,0.00,VWS V14.01,2013-02-17 02:31:00,
2013-02-16 20:36:00,53.6,39.6,30.25,SE,146,3.0,8.0,59,0.00,,---,0.00,VWS V14.01,2013-02-17 02:36:00,
2013-02-16 20:41:00,53.6,39.6,30.25,ESE,122,2.0,8.0,59,0.00,,---,0.00,VWS V14.01,2013-02-17 02:41:00,
2013-02-16 20:46:00,53.6,39.6,30.25,SE,124,3.0,5.0,59,0.00,,---,0.00,VWS V14.01,2013-02-17 02:46:00,
2013-02-16 20:51:00,53.6,39.6,30.25,SE,132,4.0,8.0,59,0.00,,---,0.00,VWS V14.01,2013-02-17 02:51:00,
2013-02-16 20:56:00,53.6,40.1,30.25,SE,134,3.0,8.0,60,0.00,,---,0.00,VWS V14.01,2013-02-17 02:56:00,
2013-02-16 21:01:00,53.6,40.1,30.25,SE,134,3.0,6.0,60,0.00,,---,0.00,VWS V14.01,2013-02-17 03:01:00,
2013-02-16 21:06:00,53.5,40.0,30.25,SE,134,4.0,7.0,60,0.00,,---,0.00,VWS V14.01,2013-02-17 03:06:00,
2013-02-16 21:11:00,53.3,40.2,30.25,SE,134,3.0,7.0,61,0.00,,---,0.00,VWS V14.01,2013-02-17 03:11:00,
2013-02-16 21:16:00,53.2,40.1,30.26,SE,134,2.0,2.0,61,0.00,,---,0.00,VWS V14.01,2013-02-17 03:16:00,
2013-02-16 21:21:00,52.9,40.2,30.26,SE,134,3.0,4.0,62,0.00,,---,0.00,VWS V14.01,2013-02-17 03:21:00,
2013-02-16 21:26:00,52.8,40.2,30.26,SE,134,1.0,4.0,62,0.00,,---,0.00,VWS V14.01,2013-02-17 03:26:00,
2013-02-16 21:31:00,52.6,40.4,30.26,SE,134,2.0,4.0,63,0.00,,---,0.00,VWS V14.01,2013-02-17 03:31:00,
2013-02-16 21:36:00,52.5,40.3,30.26,SE,134,1.0,4.0,63,0.00,,---,0.00,VWS V14.01,2013-02-17 03:36:00,
2013-02-16 21:41:00,52.5,40.7,30.26,SE,134,2.0,4.0,64,0.00,,---,0.00,VWS V14.01,2013-02-17 03:41:00,
2013-02-16 21:46:00,52.3,40.5,30.26,SE,134,1.0,3.0,64,0.00,,---,0.00,VWS V14.01,2013-02-17 03:46:00,
2013-02-16 21:51:00,52.3,40.5,30.26,SE,134,2.0,4.0,64,0.00,,---,0.00,VWS V14.01,2013-02-17 03:51:00,
2013-02-16 21:56:00,52.2,40.8,30.26,SE,134,2.0,4.0,65,0.00,,---,0.00,VWS V14.01,2013-02-17 03:56:00,
2013-02-16 22:01:00,52.2,40.8,30.26,SE,134,2.0,3.0,65,0.00,,---,0.00,VWS V14.01,2013-02-17 04:01:00,
2013-02-16 22:06:00,52.0,40.6,30.26,SE,134,3.0,3.0,65,0.00,,---,0.00,VWS V14.01,2013-02-17 04:06:00,
2013-02-16 22:11:00,52.0,40.6,30.26,SE,134,4.0,4.0,65,0.00,,---,0.00,VWS V14.01,2013-02-17 04:11:00,
2013-02-16 22:16:00,52.0,40.6,30.26,SE,134,3.0,3.0,65,0.00,,---,0.00,VWS V14.01,2013-02-17 04:16:00,
2013-02-16 22:21:00,51.9,40.9,30.26,SE,134,1.0,3.0,66,0.00,,---,0.00,VWS V14.01,2013-02-17 04:21:00,
2013-02-16 22:26:00,51.7,40.7,30.26,SE,134,3.0,4.0,66,0.00,,---,0.00,VWS V14.01,2013-02-17 04:26:00,
2013-02-16 22:31:00,51.7,41.1,30.25,SE,134,2.0,2.0,67,0.00,,---,0.00,VWS V14.01,2013-02-17 04:31:00,
2013-02-16 22:36:00,51.6,41.0,30.25,SE,134,2.0,3.0,67,0.00,,---,0.00,VWS V14.01,2013-02-17 04:36:00,
2013-02-16 22:41:00,51.6,41.0,30.25,SE,134,1.0,3.0,67,0.00,,---,0.00,VWS V14.01,2013-02-17 04:41:00,
2013-02-16 22:47:00,51.4,41.2,30.25,SE,134,2.0,3.0,68,0.00,,---,0.00,VWS V14.01,2013-02-17 04:47:00,
2013-02-16 22:52:00,51.3,41.1,30.25,SE,134,3.0,4.0,68,0.00,,---,0.00,VWS V14.01,2013-02-17 04:52:00,
2013-02-16 22:57:00,51.4,41.2,30.25,SE,134,3.0,4.0,68,0.00,,---,0.00,VWS V14.01,2013-02-17 04:57:00,
2013-02-16 23:00:00,51.4,41.2,30.24,SE,134,1.0,4.0,68,0.00,,---,0.00,VWS V14.01,2013-02-17 05:00:00,
2013-02-16 23:05:00,51.3,41.5,30.24,SE,134,1.0,3.0,69,0.00,,---,0.00,VWS V14.01,2013-02-17 05:05:00,
2013-02-16 23:10:00,51.1,41.3,30.24,SE,134,2.0,3.0,69,0.00,,---,0.00,VWS V14.01,2013-02-17 05:10:00,
2013-02-16 23:15:00,51.1,41.3,30.24,SE,134,2.0,2.0,69,0.00,,---,0.00,VWS V14.01,2013-02-17 05:15:00,
2013-02-16 23:20:00,51.1,41.7,30.24,SE,134,1.0,3.0,70,0.00,,---,0.00,VWS V14.01,2013-02-17 05:20:00,
2013-02-16 23:25:00,51.1,41.7,30.24,SE,134,1.0,3.0,70,0.00,,---,0.00,VWS V14.01,2013-02-17 05:25:00,
2013-02-16 23:30:00,51.0,41.6,30.24,SE,134,1.0,1.0,70,0.00,,---,0.00,VWS V14.01,2013-02-17 05:30:00,
2013-02-16 23:35:00,51.0,41.9,30.24,SE,134,1.0,3.0,71,0.00,,---,0.00,VWS V14.01,2013-02-17 05:35:00,
2013-02-16 23:40:00,51.0,41.9,30.24,SE,134,1.0,3.0,71,0.00,,---,0.00,VWS V14.01,2013-02-17 05:40:00,
2013-02-16 23:45:00,51.0,41.9,30.23,SE,134,1.0,2.0,71,0.00,,---,0.00,VWS V14.01,2013-02-17 05:45:00,
2013-02-16 23:50:00,50.8,41.8,30.23,SE,134,1.0,2.0,71,0.00,,---,0.00,VWS V14.01,2013-02-17 05:50:00,
2013-02-16 23:55:00,50.7,42.0,30.23,SE,134,1.0,3.0,72,0.00,,---,0.00,VWS V14.01,2013-02-17 05:55:00,